Weather History for Siloam Springs, AR

Change the Weather History Date:

Monday, July 22, 2013

  Actual Average Record
Temperature  
Mean Temperature 81 °F -  
Max Temperature 91 °F 87 °F 100 °F (2012)
Min Temperature 71 °F 67 °F 60 °F (2006)
Cooling Degree Days 16    
Growing Degree Days 31 (Base 50)    
Moisture  
Dew Point 65 °F    
Average Humidity 61    
Maximum Humidity 74    
Minimum Humidity 41    
Precipitation  
Precipitation 0.00 in - - ()
Sea Level Pressure  
Sea Level Pressure 29.93 in    
Wind  
Wind Speed 9 mph (South)    
Max Wind Speed 25 mph    
Max Gust Speed 32 mph    
Visibility 10 miles    
Events Thunderstorm    
Averages and records for this station are not official NWS values.
T = Trace of Precipitation, MM = Missing Value Source: NWS Daily Summary

Daily Weather History Graph

Daily Weather History Graph

Search for Another Location

Airport:

Trip Planner

Search our weather history database for the weather conditions in past years. The results will help you decide how hot, cold, wet, or windy it might be!

Date:

Astronomy

Jul. 22, 2013 Rise Set
Actual Time 6:17 AM CDT 8:31 PM CDT
Civil Twilight 5:48 AM CDT 9:00 PM CDT
Nautical Twilight 5:12 AM CDT 9:35 PM CDT
Astronomical Twilight 4:33 AM CDT 10:14 PM CDT
Moon 8:20 PM CDT (7/22) 6:12 AM CDT (7/22)
Length of Visible Light 15h 11m
Length of Day
14h 13m
Full, 100% of the Moon is Illuminated
Jul 22
Full
Jul 22
Full
Jul 29
Last Quarter
Aug 6
New
Aug 14
First Quarter

Hourly Weather History & Observations

Time (CDT) Temp. Heat Index Dew Point Humidity Pressure Visibility Wind Dir Wind Speed Gust Speed Precip Events Conditions
12:15 AM 77.0 °F - 66.2 °F 69% 29.90 in 10.0 mi SSW 10.4 mph - N/A   Clear
12:35 AM 77.0 °F - 66.2 °F 69% 29.90 in 10.0 mi SSW 10.4 mph - N/A   Clear
12:55 AM 77.0 °F - 66.2 °F 69% 29.89 in 10.0 mi SSW 10.4 mph - N/A   Clear
1:15 AM 77.0 °F - 66.2 °F 69% 29.90 in 10.0 mi SW 8.1 mph - N/A   Clear
1:35 AM 77.0 °F - 66.2 °F 69% 29.90 in 10.0 mi WSW 4.6 mph - N/A   Clear
1:55 AM 77.0 °F - 68.0 °F 74% 29.91 in 10.0 mi ENE 3.5 mph - N/A   Mostly Cloudy
2:15 AM 75.2 °F - 66.2 °F 73% 29.91 in 10.0 mi SSE 4.6 mph - N/A   Scattered Clouds
2:35 AM 75.2 °F - 66.2 °F 73% 29.91 in 10.0 mi SE 6.9 mph - N/A   Partly Cloudy
2:55 AM 75.2 °F - 66.2 °F 73% 29.90 in 10.0 mi SE 8.1 mph - N/A   Clear
3:15 AM 75.2 °F - 66.2 °F 73% 29.90 in 10.0 mi SSE 8.1 mph - N/A   Clear
3:35 AM 75.2 °F - 66.2 °F 73% 29.90 in 10.0 mi SSE 6.9 mph - N/A   Scattered Clouds
3:55 AM 75.2 °F - 66.2 °F 73% 29.89 in 10.0 mi South 9.2 mph - N/A   Mostly Cloudy
4:15 AM 77.0 °F - 66.2 °F 69% 29.89 in 10.0 mi South 9.2 mph - N/A   Partly Cloudy
4:35 AM 75.2 °F - 66.2 °F 73% 29.88 in 10.0 mi SSW 9.2 mph - N/A   Partly Cloudy
4:55 AM 75.2 °F - 66.2 °F 73% 29.89 in 10.0 mi SSW 10.4 mph - N/A   Clear
5:15 AM 75.2 °F - 66.2 °F 73% 29.89 in 10.0 mi SSW 8.1 mph - N/A   Clear
5:35 AM 75.2 °F - 66.2 °F 73% 29.89 in 7.0 mi SSW 10.4 mph - N/A   Clear
5:55 AM 75.2 °F - 66.2 °F 73% 29.91 in 10.0 mi SSW 8.1 mph - N/A   Clear
6:15 AM 75.2 °F - 66.2 °F 73% 29.92 in 10.0 mi East 4.6 mph - N/A   Partly Cloudy
6:35 AM 75.2 °F - 66.2 °F 73% 29.94 in 10.0 mi East 5.8 mph - N/A   Mostly Cloudy
6:55 AM 75.2 °F - 64.4 °F 69% 29.96 in 10.0 mi East 10.4 mph 16.1 mph N/A   Overcast
7:15 AM 73.4 °F - 60.8 °F 65% 29.97 in 10.0 mi East 12.7 mph 21.9 mph N/A   Mostly Cloudy
7:35 AM 71.6 °F - 60.8 °F 69% 29.97 in 10.0 mi ESE 10.4 mph 16.1 mph N/A   Overcast
7:55 AM 73.4 °F - 60.8 °F 65% 29.98 in 10.0 mi ESE 11.5 mph 18.4 mph N/A   Overcast
8:36 AM 73.4 °F - 60.8 °F 65% 29.99 in 10.0 mi ESE 10.4 mph 19.6 mph N/A   Scattered Clouds
8:55 AM 75.2 °F - 60.8 °F 61% 29.99 in 10.0 mi ESE 15.0 mph 21.9 mph N/A   Partly Cloudy
9:15 AM 75.2 °F - 60.8 °F 61% 29.98 in 10.0 mi SE 13.8 mph 24.2 mph N/A   Clear
9:35 AM 77.0 °F - 60.8 °F 57% 29.98 in 10.0 mi ESE 11.5 mph 19.6 mph N/A   Clear
9:55 AM 78.8 °F - 62.6 °F 57% 29.97 in 10.0 mi SE 10.4 mph - N/A   Clear
10:15 AM 78.8 °F - 62.6 °F 57% 30.00 in 10.0 mi ENE 4.6 mph - N/A   Clear
10:35 AM 75.2 °F - 62.6 °F 65% 30.03 in 10.0 mi North 25.3 mph 32.2 mph N/A   Scattered Clouds
10:55 AM 71.6 °F - 57.2 °F 60% 30.03 in 10.0 mi NNE 15.0 mph 29.9 mph N/A Thunderstorm Overcast
11:15 AM 71.6 °F - 60.8 °F 69% 30.03 in 10.0 mi NNE 12.7 mph 16.1 mph N/A   Overcast
11:55 AM 73.4 °F - 60.8 °F 65% 30.01 in 10.0 mi ENE 9.2 mph - N/A Thunderstorm Overcast
12:15 PM 77.0 °F - 60.8 °F 57% 29.99 in 10.0 mi SE 6.9 mph - N/A   Partly Cloudy
12:35 PM 78.8 °F - 62.6 °F 57% 29.97 in 10.0 mi SSE 10.4 mph - N/A   Clear
12:55 PM 82.4 °F 83.4 °F 62.6 °F 51% 29.96 in 10.0 mi South 8.1 mph - N/A   Clear
1:15 PM 84.2 °F 85.0 °F 62.6 °F 48% 29.96 in 10.0 mi South 10.4 mph - N/A   Clear
1:35 PM 87.8 °F 88.5 °F 62.6 °F 43% 29.96 in 10.0 mi South 9.2 mph - N/A   Clear
1:55 PM 91.4 °F 93.2 °F 64.4 °F 41% 29.96 in 10.0 mi SSW 8.1 mph - N/A   Clear
2:15 PM 91.4 °F 93.2 °F 64.4 °F 41% 29.95 in 10.0 mi SSW 8.1 mph - N/A   Clear
2:35 PM 91.4 °F 93.2 °F 64.4 °F 41% 29.95 in 10.0 mi WSW 11.5 mph - N/A   Clear
2:55 PM 91.4 °F 94.0 °F 66.2 °F 43% 29.95 in 10.0 mi WSW 8.1 mph - N/A   Clear
3:15 PM 91.4 °F 95.4 °F 68.0 °F 46% 29.96 in 10.0 mi West 10.4 mph - N/A   Mostly Cloudy
3:35 PM 89.6 °F 93.4 °F 68.0 °F 49% 29.94 in 10.0 mi NNW 9.2 mph - N/A   Scattered Clouds
4:35 PM 82.4 °F 84.6 °F 66.2 °F 58% 29.92 in 10.0 mi NNE 3.5 mph - N/A   Clear
4:55 PM 84.2 °F 87.3 °F 68.0 °F 58% 29.91 in 10.0 mi SE 5.8 mph - N/A   Clear
5:16 PM 87.8 °F 92.6 °F 69.8 °F 55% 29.92 in 10.0 mi South 4.6 mph - N/A   Clear
5:35 PM 89.6 °F 94.7 °F 69.8 °F 52% 29.91 in 10.0 mi South 8.1 mph - N/A   Partly Cloudy
5:55 PM 86.0 °F 90.4 °F 69.8 °F 58% 29.91 in 10.0 mi SW 15.0 mph 20.7 mph N/A   Partly Cloudy
6:16 PM 86.0 °F 89.4 °F 68.0 °F 55% 29.90 in 10.0 mi SSW 12.7 mph - N/A   Clear
6:35 PM 86.0 °F 88.2 °F 66.2 °F 51% 29.89 in 10.0 mi SW 10.4 mph - N/A   Clear
6:55 PM 86.0 °F 88.2 °F 66.2 °F 51% 29.90 in 10.0 mi SW 8.1 mph - N/A   Clear
7:15 PM 86.0 °F 87.3 °F 64.4 °F 48% 29.91 in 10.0 mi SSW 9.2 mph - N/A   Clear
7:35 PM 84.2 °F 85.6 °F 64.4 °F 51% 29.90 in 10.0 mi SSW 6.9 mph - N/A   Clear
7:55 PM 82.4 °F 83.9 °F 64.4 °F 54% 29.90 in 10.0 mi SSW 5.8 mph - N/A   Clear
8:15 PM 82.4 °F 83.4 °F 62.6 °F 51% 29.90 in 10.0 mi SSW 8.1 mph - N/A   Clear
8:35 PM 80.6 °F 81.8 °F 62.6 °F 54% 29.90 in 10.0 mi South 8.1 mph - N/A   Clear
8:55 PM 80.6 °F 81.8 °F 62.6 °F 54% 29.89 in 10.0 mi South 5.8 mph - N/A   Clear
9:15 PM 80.6 °F 81.8 °F 62.6 °F 54% 29.89 in 10.0 mi South 4.6 mph - N/A   Clear
9:35 PM 80.6 °F 81.8 °F 62.6 °F 54% 29.89 in 10.0 mi South 8.1 mph - N/A   Clear
9:55 PM 80.6 °F 81.8 °F 62.6 °F 54% 29.89 in 10.0 mi South 6.9 mph - N/A   Clear
10:15 PM 78.8 °F - 64.4 °F 61% 29.89 in 10.0 mi South 6.9 mph - N/A   Clear
10:35 PM 78.8 °F - 64.4 °F 61% 29.90 in 10.0 mi South 8.1 mph - N/A   Clear
10:55 PM 78.8 °F - 64.4 °F 61% 29.90 in 10.0 mi SSW 9.2 mph - N/A   Clear
11:15 PM 77.0 °F - 66.2 °F 69% 29.92 in 10.0 mi SSW 8.1 mph - N/A   Clear
11:35 PM 77.0 °F - 64.4 °F 65% 29.92 in 10.0 mi SSW 8.1 mph - N/A   Clear
11:56 PM 75.2 °F - 66.2 °F 73% 29.92 in 10.0 mi SSW 6.9 mph - N/A   Clear